Weather History for Copper Harbor, MI

Change the Weather History Date:

Saturday, June 21, 2014

  Actual Average Record
Temperature  
Mean Temperature 54 °F -  
Max Temperature 60 °F 66 °F 78 °F (2006)
Min Temperature 48 °F 47 °F 44 °F (2013)
Degree Days  
Heating Degree Days 12    
Growing Degree Days 4 (Base 50)    
Moisture  
Dew Point 49 °F    
Average Humidity 81    
Maximum Humidity 93    
Minimum Humidity 71    
Precipitation  
Precipitation 0.12 in - - ()
Sea Level Pressure  
Sea Level Pressure 29.96 in    
Wind  
Wind Speed 7 mph (SSW)    
Max Wind Speed 12 mph    
Max Gust Speed 26 mph    
Averages and records for this station are not official NWS values.
T = Trace of Precipitation, MM = Missing Value Source: NWS Daily Summary

Daily Weather History Graph

Daily Weather History Graph

Search for Another Location

Airport:

Trip Planner

Search our weather history database for the weather conditions in past years. The results will help you decide how hot, cold, wet, or windy it might be!

Date:

Astronomy

Jun. 21, 2014 Rise Set
Actual Time 5:54 AM EDT 9:52 PM EDT
Civil Twilight 5:13 AM EDT 10:32 PM EDT
Nautical Twilight 4:17 AM EDT 11:28 PM EDT
Astronomical Twilight 2:48 AM EDT 12:57 AM EDT
Moon 2:27 AM EDT (6/21) 4:13 PM EDT (6/21)
Length of Visible Light 17h 19m
Length of Day
15h 58m
Waning Crescent, 30% of the Moon is Illuminated
Jun 21
Waning Crescent
Jun 27
New
Jul 5
First Quarter
Jul 12
Full
Jul 18
Last Quarter

Hourly Weather History & Observations

Time (EDT) Temp. Dew Point Humidity Pressure Visibility Wind Dir Wind Speed Gust Speed Precip Events Conditions
12:51 AM 52.0 °F 43.0 °F 71% 30.02 in - Variable 6.9 mph - N/A   Unknown
1:51 AM 52.0 °F 43.0 °F 71% 30.00 in - South 10.4 mph 18.4 mph N/A   Unknown
2:51 AM 53.1 °F 44.1 °F 71% 30.00 in - South 9.2 mph - N/A   Unknown
3:51 AM 54.0 °F 45.0 °F 72% 29.99 in - South 5.8 mph - N/A   Unknown
4:51 AM 52.0 °F 45.0 °F 77% 29.99 in - SSW 10.4 mph 17.3 mph N/A   Unknown
5:51 AM 51.1 °F 46.0 °F 83% 30.00 in - Variable 5.8 mph - N/A   Unknown
6:51 AM 53.1 °F 46.9 °F 80% 29.97 in - Variable 6.9 mph - N/A   Unknown
7:51 AM 54.0 °F 48.0 °F 80% 29.96 in - SSW 11.5 mph 25.3 mph N/A   Unknown
8:51 AM 57.0 °F 52.0 °F 83% 29.95 in - SSW 8.1 mph - N/A   Unknown
9:51 AM 57.0 °F 53.1 °F 87% 29.95 in - Variable 5.8 mph - N/A   Unknown
10:51 AM 55.0 °F 52.0 °F 89% 29.97 in - Variable 4.6 mph - 0.03 in   Unknown
11:51 AM 57.0 °F 54.0 °F 89% 29.94 in - SSW 10.4 mph 20.7 mph 0.09 in   Unknown
12:51 PM 59.0 °F 55.0 °F 87% 29.93 in - SSW 11.5 mph 26.5 mph N/A   Unknown
1:51 PM 57.9 °F 53.1 °F 84% 29.94 in - Variable 6.9 mph - N/A   Unknown
2:51 PM 57.9 °F 52.0 °F 81% 29.93 in - Variable 5.8 mph - N/A   Unknown
3:51 PM 57.9 °F 54.0 °F 87% 29.93 in - Variable 4.6 mph - N/A   Unknown
4:51 PM 51.1 °F 46.0 °F 83% 29.94 in - Calm Calm - N/A   Unknown
5:51 PM 57.9 °F 52.0 °F 81% 29.94 in - Variable 3.5 mph - N/A   Unknown
6:51 PM 54.0 °F 48.0 °F 80% 29.94 in - Calm Calm - N/A   Unknown
7:51 PM 52.0 °F 46.0 °F 80% 29.94 in - Variable 3.5 mph - N/A   Unknown
8:51 PM 57.9 °F 50.0 °F 75% 29.92 in - Variable 3.5 mph - N/A   Unknown
9:51 PM 54.0 °F 48.9 °F 83% 29.93 in - Calm Calm - N/A   Unknown
10:51 PM 48.9 °F 45.0 °F 86% 29.95 in - Calm Calm - N/A   Unknown
11:51 PM 48.9 °F 46.9 °F 93% 29.94 in - Calm Calm - N/A   Unknown